Flag for Russia Weather past 2 weeks in Murmansk, Russia

Now
25 °F

Heavy snow. Ice fog.


Feels Like: 25 °F
Forecast: 2 / 10 °F
Wind: 1 mph from North

Location: Murmansk Airport

Current Time: Dec 22, 2014 at 3:43:59 AM

Latest Report: Dec 22, 2014 at 3:00 AM


Visibility: 0 mi

Pressure: 29.30 "Hg

Humidity: 93%

Dew point: 23 °F

Location of MurmanskLocation

Historic Weather in Murmansk — Graph

°F

Murmansk temperature yesterday

Maximum temperature yesterday: 28 °F (at 12:00 AM)
Minimum temperature yesterday: 21 °F (at 7:30 AM)
Average temperature yesterday: 26 °F

Past Weeks' High & Low Weather Summary

 TemperatureHumidityPressure
High36 °F (Dec 8, 4:00 PM)100% (Dec 21, 6:00 PM)29.59 "Hg (Dec 21, 6:00 PM)
Low-4 °F (Dec 20, 3:00 AM)69% (Dec 7, 10:30 AM)29.03 "Hg (Dec 20, 2:00 PM)
Average26 °F84%29.29 "Hg
* Reported Dec 7 2:00 AM — Dec 22 2:00 AM, Murmansk, Weather by CustomWeather, © 2014

Note: Actual official high and low records may vary slightly from our data, if they occured in-between our weather recording intervals... More about our weather records

Advertising

Murmansk weather history for previous 24 hours

 ConditionsComfort  
Time TempWeatherWind HumidityBarometerVisibility
2:00 AM
Dec 22
25 °FSnow flurries. Partly cloudy.3 mph93%29.30 "HgN/A
1:30 AM27 °FSnow flurries. Partly cloudy.1 mph93%29.30 "Hg6 mi
1:00 AM27 °FHeavy snow. Ice fog.3 mph93%29.30 "Hg1 mi
12:00 AM25 °FSnow showers. Ice fog.1 mph93%29.30 "Hg1 mi
11:30 PM
Dec 21
27 °FSnow flurries. Partly cloudy.1 mph93%29.30 "Hg1 mi
11:00 PM25 °FSnow flurries. Partly cloudy.3 mph93%29.30 "HgN/A
10:30 PM27 °FSnow flurries. Partly cloudy.3 mph93%29.30 "HgN/A
10:00 PM25 °FSnow flurries. Partly cloudy.1 mph93%29.30 "Hg4 mi
9:30 PM23 °FHeavy snow. Ice fog.3 mph93%29.30 "Hg0 mi
9:00 PM25 °FPassing clouds.1 mph93%29.30 "HgN/A
8:30 PM25 °FPassing clouds.1 mph86%29.30 "HgN/A
8:00 PM25 °FSnow flurries. Partly cloudy.3 mph93%29.27 "HgN/A
7:30 PM27 °FPartly cloudy.3 mph93%29.27 "HgN/A
7:00 PM27 °FSnow flurries. Partly cloudy.3 mph93%29.27 "HgN/A
6:30 PM28 °FSnow flurries. Broken clouds.1 mph93%29.27 "HgN/A
6:00 PM27 °FSnow flurries. Partly sunny.3 mph100%29.27 "HgN/A
5:30 PM28 °FSnow flurries. Partly sunny.1 mph93%29.27 "Hg6 mi
5:00 PM28 °FSnow flurries. Partly sunny.3 mph93%29.24 "Hg2 mi
4:30 PM28 °FSnow showers. Ice fog.3 mph93%29.24 "Hg1 mi
4:00 PM28 °FSnow showers. Ice fog.8 mph93%29.24 "Hg1 mi
3:30 PM28 °FHeavy snow. Ice fog.3 mph93%29.24 "Hg0 mi
3:00 PM28 °FHeavy snow. Ice fog.1 mph93%29.24 "Hg0 mi
2:30 PM27 °FSnow flurries. Partly sunny.1 mph93%29.21 "Hg2 mi
2:00 PM27 °FSnow flurries. Partly sunny.3 mph93%29.21 "Hg2 mi
1:30 PM25 °FSnow flurries. Partly sunny.1 mph93%29.21 "Hg1 mi
1:00 PM27 °FSnow flurries. Partly sunny.3 mph93%29.21 "Hg6 mi
12:30 PM25 °FBroken clouds.1 mph93%29.21 "HgN/A
12:00 PM27 °FSnow flurries. Broken clouds.3 mph93%29.21 "HgN/A
11:30 AM25 °FIce fog.3 mph93%29.18 "Hg3 mi
11:00 AM25 °FSnow flurries. Ice fog.1 mph93%29.18 "Hg3 mi
10:30 AM25 °FBroken clouds.3 mph93%29.18 "Hg4 mi
10:00 AM23 °FIce fog.1 mph93%29.18 "Hg2 mi
9:30 AM25 °FIce fog.No wind93%29.15 "Hg2 mi
9:00 AM25 °FSnow flurries. Partly sunny.3 mph93%29.15 "Hg3 mi
8:30 AM21 °FSnow flurries. Broken clouds.No wind93%29.15 "Hg5 mi
8:00 AM21 °FIce fog.1 mph93%29.12 "Hg3 mi
7:30 AM21 °FBroken clouds.No wind93%29.12 "Hg4 mi
7:00 AM25 °FPartly sunny.No wind93%29.12 "Hg4 mi
6:30 AM25 °FPartly sunny.1 mph93%29.12 "Hg4 mi
6:00 AM25 °FPartly sunny.No wind93%29.12 "Hg4 mi
5:30 AM27 °FSnow flurries. Passing clouds.1 mph93%29.12 "Hg6 mi
5:00 AM27 °FSnow flurries. Passing clouds.No wind86%29.09 "Hg6 mi
4:30 AM27 °FSnow flurries. Passing clouds.1 mph93%29.09 "Hg6 mi
4:00 AM27 °FSnow flurries. Passing clouds.No wind93%29.09 "Hg2 mi
3:30 AM28 °FSnow flurries. Passing clouds.1 mph86%29.09 "Hg1 mi
3:00 AM28 °FSnow flurries. Passing clouds.3 mph86%29.09 "Hg6 mi
Weather by CustomWeather, © 2014

See weather overviewHow to use our weather pages